Regional Weather Roundup
Issued by NWS

Home | Current Version | Previous Version | Graphics & Text | Print | Product List | Glossary On
Versions: 1 2 3 4 5 6 7 8 9 10 11 12 13 14 15 16 17 18 19 20 21 22 23 24 25 26 27 28 29 30 31 32 33 34 35 36 37 38 39 40 41 42 43 44 45 46 47 48 49 50
000
ASUS43 KLOT 061103
RWRIL

ILLINOIS REGIONAL WEATHER ROUNDUP
NATIONAL WEATHER SERVICE CHICAGO/ROMEOVILLE IL
600 AM CDT FRI MAY 06 2016

NOTE: "FAIR" INDICATES FEW OR NO CLOUDS BELOW 12,000 FEET WITH NO
SIGNIFICANT WEATHER AND/OR OBSTRUCTIONS TO VISIBILITY.

* THESE STATIONS ARE NOT UNDER NWS QUALITY CONTROL. THEY ALSO MAY NOT
  REPORT WEATHER SUCH AS PRECIPITATION OR FOG.

ILZ001-002-007-009-015-016-024-061200-
NORTHWEST ILLINOIS

CITY           SKY/WX    TMP DP  RH WIND       PRES   REMARKS
MOLINE         CLEAR     43  39  86 CALM      29.99R
STERLING*      PTCLDY    45  39  81 CALM      30.00R
$$

ILZ003-004-008-010-011-017-018-061200-
NORTH CENTRAL ILLINOIS

CITY           SKY/WX    TMP DP  RH WIND       PRES   REMARKS
ROCKFORD       CLOUDY    47  40  76 SE5       30.01R
FREEPORT*      MOCLDY    50  38  62 SW7       29.99S
ROCHELLE*      CLOUDY    45  41  88 CALM      30.01R
DE KALB*       CLOUDY    52  41  65 W10       29.99S
$$

ILZ005-006-012>014-019>023-061200-
NORTHEAST ILLINOIS

CITY           SKY/WX    TMP DP  RH WIND       PRES   REMARKS
CHICAGO-OHARE  MOCLDY    49  42  77 W7        29.96S
CHICAGO-MIDWAY CLOUDY    50  41  71 SW3       29.97F
AURORA         CLOUDY    45  42  89 CALM      30.00R
LANSING*       CLEAR     39  38  94 CALM      29.98S
WAUKEGAN       MOCLDY    50  42  74 W5        29.97R
DUPAGE AIRPORT CLOUDY    47  40  76 W5        29.97S
WHEELING       CLOUDY    49  41  74 CALM      29.98S
NORTHERLY ISL    N/A     51  40  65 W9          N/A
NORTHERLY ISL    N/A     51  40  65 W9          N/A
$$

LMZ740>746-061200-
SOUTHERN LAKE MICHIGAN

STATION/POSITION SKY/WX   TEMP    WIND        PRES    VSBY  WAVE
                          AIR SEA DIR/SP/G                  HT/PER
                          (F)     (DEG/KT/KT) (MB)    (MI)  (FT/S)
SOUTHERN BUOY              44 40  220/  8/  8 1014.2          1
WILMETTE HARBOR            48 44  250/  6/ 10   N/A           1/ 5
HARRISON CRIB              52     180/  1/  2   N/A
BURNHAM HARBOR             51     260/  7/  7   N/A
CALUMET HARBOR             47     220/  3/  5 1014.4R
BURNS HARBOR               44     200/  3/  5 1015.9R
MICHIGAN CITY              43     160/  4/  5   N/A
ST. JOSEPH                 46 47                N/A           1/ 4
$$

ILZ025>027-034>036-040-047-049-050-058-095>099-061200-
WEST-CENTRAL ILLINOIS

CITY           SKY/WX    TMP DP  RH WIND       PRES   REMARKS
QUINCY         CLEAR     45  41  86 SW6       30.03S
MACOMB*        CLEAR     46  39  78 W7        30.04R
PITTSFIELD*    CLEAR     50  40  69 W5        30.05R
$$

ILZ028>032-037-038-041>044-048-051>054-059>061-061200-
CENTRAL ILLINOIS

CITY           SKY/WX    TMP DP  RH WIND       PRES   REMARKS
BLOOMINGTON    CLEAR     47  41  80 W6        30.03R
DECATUR        CLEAR     44  40  85 CALM      30.02R
PEORIA         CLEAR     44  39  82 CALM      30.02R
SPRINGFIELD    CLEAR     44  39  82 W3        30.03R
TAYLORVILLE    NOT AVBL
$$

ILZ033-039-045-046-055>057-062-063-061200-
EAST-CENTRAL ILLINOIS

CITY           SKY/WX    TMP DP  RH WIND       PRES   REMARKS
CHAMPAIGN      CLEAR     42  40  92 NW3       30.01R
MATTOON        CLEAR     47  41  80 W6        30.01R
$$

ILZ079-100>102-061200-
SOUTHWEST ILLINOIS

CITY           SKY/WX    TMP DP  RH WIND       PRES   REMARKS
ALTON          CLEAR     42  41  97 CALM      30.04S
CAHOKIA*       CLEAR     44  42  93 CALM      30.05R
SPARTA*        CLEAR     47  43  86 W3        30.05S
$$

ILZ064>066-069>071-074>076-080>082-084>086-088>090-092>094-061200-
SOUTH-CENTRAL ILLINOIS

CITY           SKY/WX    TMP DP  RH WIND       PRES   REMARKS
CARBONDALE     CLEAR     44  41  89 MISG      30.04R
MT. VERNON       N/A     41  37  87 CALM      30.04R VSB 1/2
SALEM*         CLEAR     46  44  94 CALM      30.03S FOG
$$

ILZ067-068-072-073-078-083-087-091-061200-
SOUTHEAST ILLINOIS

CITY           SKY/WX    TMP DP  RH WIND       PRES   REMARKS
LAWRENCEVILLE  CLEAR     45  44  97 NW3       30.02R
FLORA*         CLEAR     45  43  93 CALM      30.03R
HARRISBURG*    CLEAR     44  43  99 CALM      30.04R
ROBINSON*      CLEAR     41  41 100 CALM      30.03R
$$

ABBREVIATIONS USED IN REMARKS
   TC - TEMPERATURE IN CELSIUS
  WCI - WIND CHILL INDEX
   HX - HEAT INDEX
  VSB - VISIBILITY
$$




USA.gov is the U.S. government's official web portal to all federal, state and local government web resources and services.